GW5686 Weather Reports


time (UTC)temp
C
wind
direction
speed
KPH
gust
KPH
rain 1hr
cm
rain 24hr
cm
rain mn
cm
humidity
%
barometer
mb
20260507174620 15 126 11.3 16.1 0.00 0.48 0.48 68 999.1
20260507174119 15 130 8.0 16.1 0.00 0.48 0.48 69 999.3
20260507173615 15 109 6.4 16.1 0.00 0.48 0.48 65 999.0
20260507173112 14 153 9.7 11.3 0.00 0.48 0.48 68 999.2
20260507172608 15 128 8.0 9.7 0.00 0.48 0.48 68 998.9
20260507172106 14 235 4.8 12.9 0.00 0.48 0.48 69 999.1
20260507171601 14 165 6.4 14.5 0.00 0.48 0.48 70 999.3
20260507171058 14 130 11.3 12.9 0.00 0.48 0.48 69 999.4
20260507170555 15 154 9.7 12.9 0.00 0.48 0.48 68 999.4
20260507170052 15 312 4.8 4.8 0.00 0.48 0.48 55 999.5
20260507165547 15 170 1.6 3.2 0.00 0.48 0.48 55 999.4
20260507165044 16 269 4.8 9.7 0.00 0.48 0.48 56 999.2
20260507164540 16 161 0.0 1.6 0.00 0.48 0.48 54 999.2
20260507164037 15 304 3.2 9.7 0.00 0.48 0.48 57 999.6
20260507163535 15 298 3.2 11.3 0.00 0.48 0.48 60 999.4
20260507163032 15 306 3.2 6.4 0.00 0.48 0.48 60 999.6
20260507162527 14 317 8.0 9.7 0.00 0.48 0.48 60 999.5
20260507162024 14 354 3.2 6.4 0.00 0.48 0.48 59 999.6
20260507161520 13 328 9.7 12.9 0.00 0.48 0.48 63 1000.0
20260507161018 13 7 4.8 12.9 0.00 0.48 0.48 63 1000.0
20260507160513 14 332 3.2 11.3 0.00 0.48 0.48 68 1000.0
20260507160010 13 47 4.8 12.9 0.00 0.48 0.48 65 1000.1
20260507155505 12 29 6.4 6.4 0.00 0.48 0.48 68 1000.2
20260507155003 12 305 6.4 9.7 0.00 0.48 0.48 71 1000.4
20260507154459 12 32 4.8 6.4 0.00 0.48 0.48 70 1000.6
20260507153956 12 282 8.0 11.3 0.00 0.48 0.48 70 1000.7
20260507153453 12 308 6.4 9.7 0.00 0.48 0.48 74 1000.9
20260507152949 12 352 3.2 14.5 0.00 0.48 0.48 75 1000.9
20260507152445 12 325 3.2 4.8 0.00 0.48 0.48 77 1000.4
20260507151942 12 113 1.6 11.3 0.00 0.48 0.48 76 1000.4
20260507151438 11 287 3.2 6.4 0.00 0.48 0.48 78 1000.3
20260507150935 11 340 4.8 9.7 0.00 0.48 0.48 78 1000.4
20260507150432 11 37 1.6 11.3 0.00 0.48 0.48 77 1000.7
20260507145928 11 331 4.8 4.8 0.00 0.48 0.48 83 1000.4
20260507145424 11 1 4.8 9.7 0.00 0.48 0.48 82 1000.7
20260507144921 10 333 3.2 4.8 0.00 0.48 0.48 82 1001.1
20260507144418 10 36 6.4 11.3 0.00 0.48 0.48 85 1000.8
20260507143915 10 295 3.2 6.4 0.00 0.48 0.48 85 1001.2
20260507143413 10 330 8.0 9.7 0.00 0.48 0.48 85 1001.0
20260507142909 10 332 1.6 6.4 0.00 0.48 0.48 87 1001.2
20260507142404 11 110 1.6 4.8 0.00 0.48 0.48 86 1001.3
20260507141902 10 323 6.4 11.3 0.00 0.48 0.48 87 1001.2
20260507141358 10 316 3.2 6.4 0.00 0.48 0.48 89 1001.4
20260507140855 9 18 8.0 9.7 0.13 0.48 0.48 89 1001.4
20260507140352 10 339 12.9 14.5 0.13 0.48 0.48 91 1001.6
20260507135849 9 335 4.8 4.8 0.00 0.46 0.46 92 1001.6
20260507135346 9 346 4.8 6.4 0.00 0.46 0.46 91 1002.3
20260507134843 10 353 4.8 9.7 0.00 0.46 0.46 91 1001.8
20260507134339 9 308 6.4 9.7 0.00 0.46 0.46 93 1001.8
20260507133835 9 303 8.0 12.9 0.00 0.46 0.46 93 1001.3
20260507133331 9 302 4.8 9.7 0.00 0.46 0.46 94 1001.2
20260507132830 9 326 4.8 11.3 0.00 0.46 0.46 94 1001.3
20260507132326 9 315 3.2 6.4 0.00 0.46 0.46 94 1001.3
20260507131823 8 2 1.6 4.8 0.00 0.46 0.46 95 1001.4
20260507131320 8 329 4.8 6.4 0.00 0.46 0.46 94 1001.5
20260507130816 8 348 3.2 6.4 0.00 0.46 0.46 95 1001.7
20260507130314 8 343 4.8 9.7 0.00 0.46 0.46 95 1001.4
20260507125813 8 1 3.2 4.8 0.00 0.46 0.46 96 1001.4
20260507125310 8 325 3.2 4.8 0.00 0.46 0.46 96 1001.3
20260507124807 8 322 6.4 11.3 0.00 0.46 0.46 96 1001.1
20260507124303 8 341 3.2 6.4 0.00 0.46 0.46 97 1001.4
20260507123802 8 40 3.2 4.8 0.00 0.46 0.46 97 1001.3
20260507123258 8 0 11.3 14.5 0.00 0.46 0.46 97 1001.9
20260507122754 8 318 8.0 12.9 0.00 0.46 0.46 97 1001.9
20260507122249 8 7 4.8 11.3 0.00 0.46 0.46 97 1001.3
20260507121746 8 292 3.2 6.4 0.00 0.46 0.46 97 1001.0
20260507121241 8 336 3.2 11.3 0.00 0.46 0.46 98 1001.5
20260507120738 8 332 4.8 6.4 0.00 0.46 0.46 98 1001.9
20260507120235 8 314 1.6 9.7 0.00 0.46 0.46 98 1001.9
20260507115731 8 311 3.2 6.4 0.00 0.46 0.46 98 1001.7
20260507115228 8 325 3.2 4.8 0.00 0.46 0.46 98 1002.1
20260507114723 8 331 3.2 4.8 0.00 0.46 0.46 98 1002.3
20260507114221 8 354 1.6 3.2 0.00 0.46 0.46 98 1002.2
20260507113718 8 341 3.2 4.8 0.00 0.46 0.46 98 1002.0
20260507113215 8 347 1.6 4.8 0.00 0.46 0.46 98 1001.8
20260507112712 8 325 0.0 3.2 0.00 0.46 0.46 98 1001.9
20260507112209 8 339 1.6 3.2 0.00 0.46 0.46 98 1002.1
20260507111706 8 291 0.0 1.6 0.00 0.46 0.46 98 1001.7
20260507111203 9 296 6.4 6.4 0.00 0.46 0.46 97 1001.7
20260507110658 9 30 4.8 11.3 0.00 0.46 0.46 97 1001.3
20260507110156 9 309 4.8 12.9 0.00 0.46 0.46 98 1001.5
20260507105652 9 353 1.6 9.7 0.00 0.46 0.46 98 1001.2
20260507105148 9 333 6.4 9.7 0.00 0.46 0.46 98 1000.9
20260507104646 9 337 3.2 11.3 0.00 0.46 0.46 98 1000.7
20260507104142 9 334 3.2 9.7 0.00 0.46 0.46 98 1000.7
20260507103638 9 335 1.6 3.2 0.00 0.46 0.46 98 1000.4
20260507103135 9 274 4.8 4.8 0.00 0.46 0.46 98 1001.0
20260507102632 9 312 4.8 4.8 0.00 0.46 0.46 98 1001.0
20260507102128 9 316 4.8 6.4 0.00 0.46 0.46 98 1001.4
20260507101624 9 334 8.0 11.3 0.00 0.46 0.46 98 1001.2
20260507101120 9 8 0.0 6.4 0.00 0.46 0.46 98 1001.0
20260507100618 9 29 3.2 9.7 0.00 0.46 0.46 98 1001.0
20260507100116 9 299 3.2 9.7 0.00 0.46 0.46 99 1000.9
20260507095614 9 342 6.4 9.7 0.00 0.46 0.46 99 1001.1
20260507095110 9 326 4.8 11.3 0.00 0.46 0.46 99 1001.2
20260507094606 9 302 3.2 9.7 0.00 0.46 0.46 99 1000.9
20260507094103 9 350 4.8 6.4 0.00 0.46 0.46 99 1000.9
20260507093601 9 349 1.6 9.7 0.00 0.46 0.46 99 1000.9
20260507093059 9 335 1.6 3.2 0.00 0.46 0.46 99 1000.6
20260507092555 9 339 4.8 6.4 0.00 0.46 0.46 99 1000.4
20260507092052 9 335 3.2 4.8 0.00 0.46 0.46 99 1000.2
20260507091549 9 63 3.2 4.8 0.00 0.46 0.46 99 1000.2
20260507091045 9 351 1.6 3.2 0.00 0.46 0.46 99 1000.3
20260507090541 9 19 0.0 3.2 0.00 0.46 0.46 99 1000.2
20260507090038 9 46 0.0 1.6 0.00 0.46 0.46 99 1000.2
20260507085535 9 46 1.6 3.2 0.00 0.46 0.46 99 1000.3
20260507085031 9 12 0.0 0.0 0.00 0.46 0.46 99 1000.9
20260507084528 9 51 0.0 0.0 0.00 0.46 0.46 99 1000.4
20260507084025 9 19 0.0 0.0 0.00 0.46 0.46 99 1000.6
20260507083521 9 330 0.0 4.8 0.00 0.46 0.46 99 1000.2
20260507083019 9 295 0.0 1.6 0.00 0.46 0.46 99 1000.2
20260507082514 9 279 0.0 0.0 0.00 0.46 0.46 99 999.8
20260507082010 9 153 0.0 0.0 0.00 0.46 0.46 99 999.6
20260507081507 9 135 0.0 1.6 0.00 0.46 0.46 99 1000.1
20260507081004 8 298 0.0 0.0 0.00 0.46 0.46 99 1000.2
20260507080459 8 173 0.0 0.0 0.18 0.46 0.46 99 1000.0
20260507075955 8 166 1.6 3.2 0.18 0.46 0.46 99 999.9
20260507075452 8 205 0.0 3.2 0.00 0.43 0.43 99 999.8
20260507074949 8 252 3.2 3.2 0.18 0.43 0.43 99 1000.0
20260507074446 8 136 1.6 3.2 0.18 0.43 0.43 99 1000.1
20260507073944 8 175 1.6 3.2 0.00 0.41 0.41 99 1000.1
20260507073439 9 176 1.6 3.2 0.00 0.41 0.41 99 999.9
20260507072936 9 212 1.6 4.8 0.13 0.41 0.41 99 1000.2
20260507072434 8 231 1.6 1.6 0.13 0.41 0.41 99 999.6
20260507071932 8 190 1.6 4.8 0.00 0.38 0.38 99 999.3
20260507071429 8 12 0.0 3.2 0.18 0.38 0.38 99 999.2
20260507070925 8 162 0.0 3.2 0.30 0.38 0.38 99 999.8
20260507070422 8 237 0.0 3.2 0.43 0.36 0.36 99 1000.0
20260507065918 8 163 0.0 4.8 0.48 0.33 0.33 98 999.8
20260507065415 8 22 1.6 4.8 0.30 0.28 0.28 98 1000.9
20260507064907 8 216 3.2 11.3 0.30 0.25 0.25 98 1000.8
20260507064405 8 96 3.2 4.8 0.30 0.23 0.23 98 1000.3
20260507063902 8 231 3.2 4.8 0.13 0.20 0.20 98 1000.1
20260507063359 8 161 4.8 9.7 0.18 0.18 0.18 98 1000.3
20260507062856 8 155 8.0 14.5 0.00 0.15 0.15 98 1000.4
20260507062352 8 143 4.8 11.3 0.00 0.15 0.15 98 1000.4
20260507061850 8 214 6.4 9.7 0.00 0.15 0.15 98 1000.5
20260507061348 9 109 3.2 12.9 0.13 0.15 0.15 98 1000.5
20260507060846 9 237 4.8 12.9 0.00 0.13 0.13 98 1000.4
20260507060344 9 136 4.8 9.7 0.00 0.13 0.13 98 1000.5
20260507055841 9 237 6.4 9.7 0.00 0.13 0.13 98 1000.4
20260507055340 9 171 8.0 14.5 0.00 0.13 0.13 98 1000.3
20260507054838 9 152 6.4 22.5 0.00 0.13 0.13 98 1000.3
20260507054334 9 265 3.2 17.7 0.00 0.13 0.13 98 1000.5
20260507053831 9 84 4.8 12.9 0.00 0.13 0.13 98 1000.5
20260507053329 9 136 6.4 11.3 0.00 0.13 0.13 98 1000.5
20260507052827 9 185 12.9 14.5 0.00 0.13 0.13 98 1000.7
20260507052324 9 135 3.2 16.1 0.00 0.13 0.13 98 1000.7
20260507051822 9 121 4.8 12.9 0.18 0.13 0.13 98 1000.8
20260507051319 9 199 11.3 20.9 0.18 0.13 0.13 98 1001.0
20260507050816 9 181 6.4 14.5 0.00 0.10 0.10 98 1001.0
20260507050312 9 152 8.0 24.1 0.00 0.10 0.10 98 1001.3
20260507045809 9 218 6.4 20.9 0.18 0.10 0.10 98 1001.0
20260507045306 9 152 6.4 25.7 0.18 0.10 0.10 98 1001.2
20260507044802 9 349 6.4 20.9 0.00 0.08 0.08 98 1001.3
20260507044259 9 219 16.1 22.5 0.00 0.08 0.08 98 1001.3
20260507043755 9 289 8.0 16.1 0.13 0.08 0.08 97 1001.4
20260507043252 9 107 12.9 20.9 0.13 0.08 0.08 97 1001.6
20260507042748 9 140 11.3 16.1 0.00 0.05 0.05 97 1001.4
20260507042243 9 211 11.3 17.7 0.00 0.05 0.05 97 1001.7
20260507041741 10 254 9.7 16.1 0.18 0.05 0.05 97 1001.7
20260507041237 10 135 8.0 27.4 0.18 0.05 0.05 97 1001.4
20260507040735 10 264 12.9 30.6 0.13 0.03 0.03 97 1001.4
20260507040230 10 302 6.4 22.5 0.43 0.03 0.03 97 1001.7
20260507035727 10 100 11.3 30.6 0.79 1.02 1.02 97 1001.8
20260507035222 10 129 12.9 27.4 0.61 0.97 0.97 97 1001.6
20260507034720 10 232 8.0 17.7 0.13 0.89 0.89 97 1001.8
20260507034217 10 151 14.5 27.4 0.18 0.86 0.86 97 1002.0
20260507033715 10 178 8.0 27.4 0.18 0.84 0.84 97 1002.2
20260507033212 10 276 9.7 25.7 0.30 0.84 0.84 97 1001.9
20260507032710 10 174 9.7 17.7 0.61 0.81 0.81 97 1002.3
20260507032205 10 120 14.5 25.7 0.61 0.76 0.76 96 1002.1
20260507031702 10 229 16.1 24.1 0.61 0.71 0.71 96 1002.4
20260507031159 10 188 14.5 20.9 0.43 0.66 0.66 96 1002.7
20260507030655 10 257 12.9 27.4 0.61 0.61 0.61 96 1002.4
20260507030154 10 216 12.9 22.5 0.79 0.56 0.56 96 1002.8
20260507025651 10 99 12.9 24.1 0.79 0.51 0.51 96 1002.7
20260507025147 10 171 14.5 27.4 0.48 0.46 0.46 96 1003.1
20260507024646 10 235 12.9 30.6 0.48 0.41 0.41 96 1003.2
20260507024142 10 157 11.3 20.9 0.71 0.38 0.38 96 1003.4
20260507023638 10 204 9.7 20.9 0.61 0.33 0.33 96 1003.6
20260507023136 10 196 11.3 20.9 0.30 0.25 0.25 96 1003.6
20260507022632 10 154 14.5 27.4 0.30 0.23 0.23 96 1003.6
20260507022127 10 203 14.5 22.5 0.48 0.20 0.20 95 1004.1
20260507021624 10 108 8.0 30.6 0.48 0.18 0.18 95 1004.1
20260507021120 10 210 8.0 16.1 0.30 0.13 0.13 95 1004.2
20260507020619 10 205 17.7 24.1 0.43 0.10 0.10 95 1004.2
20260507020114 10 185 17.7 25.7 0.48 0.08 0.08 94 1004.4
20260507015613 10 154 11.3 20.9 0.18 0.03 0.03 94 1004.6
20260507015110 10 147 9.7 29.0 0.00 0.00 0.00 94 1004.7
20260507014606 10 168 8.0 16.1 0.00 0.00 0.00 93 1004.7
20260507014102 10 77 4.8 17.7 0.00 0.00 0.00 93 1004.7
20260507013559 10 109 6.4 17.7 0.00 0.00 0.00 93 1005.0
20260507013056 10 87 3.2 27.4 0.00 0.00 0.00 93 1005.0
20260507012554 10 144 8.0 24.1 0.00 0.00 0.00 93 1005.1
20260507012049 10 170 6.4 14.5 0.00 0.00 0.00 93 1005.2
20260507011547 10 265 11.3 16.1 0.00 0.00 0.00 92 1005.1
20260507011038 10 227 11.3 20.9 0.00 0.00 0.00 92 1005.1
20260507010538 10 255 9.7 25.7 0.00 0.00 0.00 91 1005.4
20260507010034 10 290 8.0 29.0 0.00 0.00 0.00 91 1005.7
20260507005532 10 143 11.3 20.9 0.00 0.00 0.00 91 1005.7
20260507005028 10 195 11.3 25.7 0.00 0.00 0.00 91 1005.7
20260507004525 10 156 9.7 22.5 0.00 0.00 0.00 91 1005.8
20260507004023 10 165 9.7 24.1 0.00 0.00 0.00 91 1005.8
20260507003518 10 182 12.9 16.1 0.00 0.00 0.00 92 1006.0
20260507003013 10 91 12.9 24.1 0.00 0.00 0.00 92 1005.7
20260507002510 10 198 9.7 16.1 0.00 0.00 0.00 92 1005.6
20260507002006 10 243 11.3 25.7 0.00 0.00 0.00 92 1005.9
20260507001503 10 225 11.3 17.7 0.00 0.00 0.00 92 1006.0
20260507001000 10 181 16.1 24.1 0.00 0.00 0.00 92 1006.0
20260507000456 10 147 6.4 16.1 0.00 0.00 0.00 92 1005.5
20260506235951 10 230 9.7 20.9 0.00 0.00 0.00 92 1005.7
20260506235450 10 149 9.7 17.7 0.00 0.00 0.00 91 1005.4
20260506234945 10 80 14.5 29.0 0.00 0.00 0.00 91 1006.2
20260506234443 10 212 9.7 24.1 0.00 0.00 0.00 91 1005.1
20260506233940 10 214 11.3 25.7 0.00 0.00 0.00 91 1005.5
20260506233436 10 93 8.0 17.7 0.00 0.00 0.00 91 1006.1
20260506232933 10 167 11.3 22.5 0.00 0.00 0.00 91 1006.3
20260506232429 10 202 8.0 22.5 0.00 0.00 0.00 90 1006.4
20260506231925 10 267 9.7 17.7 0.00 0.00 0.00 90 1006.3
20260506231423 11 228 14.5 22.5 0.00 0.00 0.00 90 1006.2
20260506230920 11 209 9.7 25.7 0.00 0.00 0.00 90 1006.1
20260506230416 11 192 9.7 24.1 0.00 0.00 0.00 90 1006.3
20260506225913 11 121 9.7 17.7 0.00 0.00 0.00 89 1006.4
20260506225411 11 171 6.4 12.9 0.00 0.00 0.00 89 1006.2
20260506224907 11 253 9.7 14.5 0.00 0.00 0.00 89 1006.5
20260506224405 11 234 4.8 14.5 0.00 0.00 0.00 89 1006.6
20260506223900 11 188 9.7 20.9 0.00 0.00 0.00 89 1006.6
20260506223356 11 242 9.7 24.1 0.00 0.00 0.00 89 1006.7
20260506222853 11 125 14.5 20.9 0.00 0.00 0.00 89 1006.5
20260506222349 11 132 12.9 27.4 0.00 0.00 0.00 89 1006.9
20260506221847 11 176 6.4 17.7 0.00 0.00 0.00 89 1006.7
20260506221344 11 147 14.5 22.5 0.00 0.00 0.00 88 1006.8
20260506220842 11 205 9.7 24.1 0.00 0.00 0.00 88 1006.8
20260506220337 11 199 12.9 17.7 0.00 0.00 0.00 88 1006.8
20260506215834 12 132 9.7 14.5 0.00 0.00 0.00 88 1006.7
20260506215330 12 206 14.5 22.5 0.00 0.00 0.00 88 1006.8
20260506214826 11 139 8.0 20.9 0.00 0.00 0.00 88 1006.5
20260506214322 11 142 9.7 17.7 0.00 0.00 0.00 89 1006.8
20260506213821 11 201 6.4 11.3 0.00 0.00 0.00 89 1006.9
20260506213318 11 144 6.4 9.7 0.00 0.00 0.00 89 1007.2
20260506212815 11 93 8.0 14.5 0.00 0.00 0.00 88 1006.7
20260506212311 11 151 14.5 17.7 0.00 0.00 0.00 88 1007.0
20260506211806 11 259 8.0 17.7 0.00 0.00 0.00 89 1006.5
20260506211302 11 95 6.4 17.7 0.00 0.00 0.00 89 1006.6
20260506210800 11 203 9.7 20.9 0.00 0.00 0.00 88 1006.6
20260506210256 12 159 12.9 27.4 0.00 0.00 0.00 88 1006.1
20260506205754 12 181 17.7 25.7 0.00 0.00 0.00 88 1006.6
20260506205249 12 223 12.9 17.7 0.00 0.00 0.00 88 1006.5
20260506204746 12 166 8.0 14.5 0.00 0.00 0.00 88 1006.2
20260506204244 12 144 11.3 20.9 0.00 0.00 0.00 87 1006.6
20260506203742 12 200 8.0 17.7 0.00 0.00 0.00 87 1006.6
20260506203238 12 253 9.7 20.9 0.00 0.00 0.00 88 1006.7
20260506202736 12 137 8.0 16.1 0.00 0.00 0.00 87 1006.6
20260506202232 12 198 14.5 25.7 0.00 0.00 0.00 87 1006.3
20260506201729 12 155 9.7 25.7 0.00 0.00 0.00 87 1006.5
20260506201226 12 179 17.7 33.8 0.00 0.00 0.00 87 1006.7
20260506200723 12 116 12.9 20.9 0.00 0.00 0.00 86 1006.6
20260506200219 12 210 9.7 14.5 0.00 0.00 0.00 86 1006.6
20260506195716 12 252 8.0 16.1 0.00 0.00 0.00 86 1006.8
20260506195213 12 209 12.9 14.5 0.00 0.00 0.00 86 1006.8
20260506194710 12 184 9.7 12.9 0.00 0.00 0.00 86 1006.6
20260506194206 12 142 9.7 24.1 0.00 0.00 0.00 87 1006.7
20260506193704 12 165 12.9 20.9 0.00 0.00 0.00 87 1006.7
20260506193201 12 251 11.3 22.5 0.00 0.00 0.00 87 1007.0
20260506192657 12 229 6.4 16.1 0.00 0.00 0.00 87 1006.8
20260506192154 11 243 9.7 20.9 0.00 0.00 0.00 87 1006.9
20260506191651 12 155 9.7 20.9 0.00 0.00 0.00 87 1007.0
20260506191147 11 187 9.7 16.1 0.00 0.00 0.00 87 1006.9
20260506190644 11 233 11.3 29.0 0.00 0.00 0.00 87 1007.0
20260506190141 11 179 9.7 22.5 0.00 0.00 0.00 87 1006.7
20260506185638 11 200 6.4 14.5 0.00 0.00 0.00 87 1006.9
20260506185134 12 210 8.0 12.9 0.00 0.00 0.00 87 1007.2
20260506184632 12 159 3.2 12.9 0.00 0.00 0.00 87 1007.0
20260506184129 12 256 9.7 16.1 0.00 0.00 0.00 87 1007.0
20260506183625 12 141 17.7 25.7 0.00 0.00 0.00 87 1007.2
20260506183121 12 158 8.0 14.5 0.00 0.00 0.00 87 1007.2
20260506182619 12 135 11.3 16.1 0.00 0.00 0.00 87 1007.2
20260506182116 12 206 9.7 16.1 0.00 0.00 0.00 87 1007.5
20260506181614 12 142 12.9 25.7 0.00 0.00 0.00 86 1007.2
20260506181111 12 92 14.5 22.5 0.00 0.00 0.00 87 1007.5
20260506180608 12 121 17.7 24.1 0.00 0.00 0.00 86 1007.6
20260506180104 12 105 8.0 24.1 0.00 0.00 0.00 86 1007.5
20260506175600 12 238 9.7 14.5 0.00 0.00 0.00 86 1007.5
20260506175056 12 150 12.9 20.9 0.00 0.00 0.00 86 1007.5